This is the latest recevied weather packets stored in our database for station/object WC4PEM-12. If no packets are shown the sender has not sent any weather packets the latest 10 day(s).
| Time | Temp. | Humidity | Pressure | Rain* | Wind** | Luminosity | Snow |
|---|---|---|---|---|---|---|---|
| 1777571891 | 30.56° C | 51% | 1011.2 hPa | 0 mm | - | - | - |
| 1777571591 | 30.56° C | 51% | 1011.4 hPa | 0 mm | - | - | - |
| 1777571343 | 30° C | 52% | 1011.4 hPa | 0 mm | - | - | - |
| 1777571291 | 30.56° C | 51% | 1011.7 hPa | 0 mm | - | - | - |
| 1777570991 | 30° C | 52% | 1011.4 hPa | 0 mm | - | - | - |
| 1777570691 | 30° C | 52% | 1011.4 hPa | 0 mm | - | - | - |
| 1777570391 | 30° C | 53% | 1011.5 hPa | 0 mm | - | - | - |
| 1777570227 | 29.44° C | 54% | 1011.3 hPa | 0 mm | - | - | - |
| 1777570091 | 29.44° C | 54% | 1011.3 hPa | 0 mm | - | - | - |
| 1777569791 | 29.44° C | 55% | 1011.5 hPa | 0 mm | - | - | - |
| 1777569624 | 29.44° C | 55% | 1011.6 hPa | 0 mm | - | - | - |
| 1777569491 | 29.44° C | 55% | 1011.6 hPa | 0 mm | - | - | - |
| 1777569191 | 29.44° C | 55% | 1011.6 hPa | 0 mm | - | - | - |
| 1777568891 | 29.44° C | 57% | 1011.6 hPa | 0 mm | - | - | - |
| 1777568808 | 28.89° C | 56% | 1011.4 hPa | 0 mm | - | - | - |
| 1777568658 | 28.89° C | 56% | 1011.8 hPa | 0 mm | - | - | - |
| 1777568591 | 28.89° C | 56% | 1011.4 hPa | 0 mm | - | - | - |
| 1777568291 | 28.89° C | 56% | 1011.8 hPa | 0 mm | - | - | - |
| 1777567991 | 29.44° C | 57% | 1011.7 hPa | 0 mm | - | - | - |
| 1777567691 | 29.44° C | 56% | 1012 hPa | 0 mm | - | - | - |
| 1777567519 | 28.33° C | 60% | 1012.2 hPa | 0 mm | - | - | - |
| 1777567447 | 28.89° C | 59% | 1012.1 hPa | 0 mm | - | - | - |
| 1777567391 | 28.89° C | 59% | 1012.1 hPa | 0 mm | - | - | - |
| 1777567091 | 28.89° C | 60% | 1012.2 hPa | 0 mm | - | - | - |
| 1777566791 | 28.33° C | 60% | 1012.2 hPa | 0 mm | - | - | - |
* Rain latest hour (hover to see other rain measurements)
** Current wind speed in m/s (hover to see current wind gust speed)